Charleston, SC

10:56 AM EDT on September 21, 2017 (GMT -0400)
Charleston Executive

Weather History for KJZI - September, 2012

Change the Weather History Date:

Tuesday, September 4, 2012

  Actual Average (KCHS) Record (KCHS)
Temperature  
Mean Temperature 83 °F -  
Max Temperature 89 °F 86 °F 99 °F (1944)
Min Temperature 77 °F 70 °F 60 °F (1997)
Cooling Degree Days 18    
Growing Degree Days 33 (Base 50)    
Moisture  
Dew Point 73 °F    
Average Humidity 72    
Maximum Humidity 84    
Minimum Humidity 58    
Precipitation  
Precipitation 0.00 in - - ()
Sea Level Pressure  
Sea Level Pressure 30.00 in    
Wind  
Wind Speed 9 mph (South)    
Max Wind Speed 14 mph    
Max Gust Speed 17 mph    
Visibility 10 miles    
Events      
Averages and records for this station are not official NWS values.
T = Trace of Precipitation, MM = Missing Value Source: NWS Daily Summary

Daily Weather History Graph

Daily Weather History Graph

Search for Another Location

Airport or City:

Trip Planner

Search our weather history database for the weather conditions in past years. The results will help you decide how hot, cold, wet, or windy it might be!

Date:

Astronomy

Sep. 04, 2012 Rise Set
Actual Time 6:56 AM EDT 7:40 PM EDT
Civil Twilight 6:31 AM EDT 8:05 PM EDT
Nautical Twilight 6:02 AM EDT 8:34 PM EDT
Astronomical Twilight 5:32 AM EDT 9:04 PM EDT
Moon 9:50 PM EDT (9/4) 10:44 AM EDT (9/4)
Length of Visible Light 13h 33m
Length of Day
12h 43m
Waning Gibbous, 84% of the Moon is Illuminated
Sep 4
Waning Gibbous
Sep 8
Last Quarter
Sep 15
New
Sep 22
First Quarter
Sep 29
Full

Hourly Weather History & Observations

Time (EDT) Temp. Heat Index Dew Point Humidity Pressure Visibility Wind Dir Wind Speed Gust Speed Precip Events Conditions
12:15 AM 78.8 °F - 71.6 °F 78% 30.03 in 10.0 mi South 9.2 mph - 0.00 in   Clear
12:55 AM 78.8 °F - 71.6 °F 78% 30.02 in 10.0 mi South 9.2 mph - 0.00 in   Clear
1:15 AM 78.8 °F - 71.6 °F 78% 30.02 in 10.0 mi South 11.5 mph - 0.00 in   Clear
1:35 AM 78.8 °F - 71.6 °F 78% 30.02 in 10.0 mi South 9.2 mph - 0.00 in   Clear
1:55 AM 78.8 °F - 71.6 °F 78% 30.02 in 10.0 mi South 9.2 mph - 0.00 in   Partly Cloudy
2:15 AM 78.8 °F - 71.6 °F 78% 30.01 in 10.0 mi South 8.1 mph - 0.00 in   Clear
2:35 AM 78.8 °F - 73.4 °F 83% 30.01 in 10.0 mi South 9.2 mph - 0.00 in   Clear
2:55 AM 78.8 °F - 71.6 °F 78% 30.01 in 10.0 mi South 8.1 mph - 0.00 in   Clear
3:15 AM 78.8 °F - 71.6 °F 78% 30.00 in 10.0 mi SSE 9.2 mph - 0.00 in   Clear
3:35 AM 78.8 °F - 71.6 °F 78% 30.00 in 10.0 mi South 8.1 mph - 0.00 in   Clear
3:55 AM 78.8 °F - 71.6 °F 78% 30.00 in 10.0 mi South 8.1 mph - 0.00 in   Clear
4:15 AM 78.8 °F - 71.6 °F 78% 30.00 in 10.0 mi SSW 8.1 mph - 0.00 in   Clear
4:35 AM 78.8 °F - 71.6 °F 78% 30.00 in 10.0 mi South 6.9 mph - 0.00 in   Scattered Clouds
4:55 AM 78.8 °F - 71.6 °F 78% 30.00 in 10.0 mi SSW 6.9 mph - 0.00 in   Scattered Clouds
5:15 AM 78.8 °F - 71.6 °F 78% 30.00 in 10.0 mi South 8.1 mph - 0.00 in   Scattered Clouds
5:35 AM 78.8 °F - 71.6 °F 78% 30.00 in 10.0 mi South 8.1 mph - 0.00 in   Partly Cloudy
5:55 AM 77.0 °F - 71.6 °F 83% 30.01 in 10.0 mi SSW 5.8 mph - 0.00 in   Partly Cloudy
6:15 AM 77.0 °F - 71.6 °F 83% 30.01 in 10.0 mi South 5.8 mph - 0.00 in   Partly Cloudy
6:35 AM 77.0 °F - 71.6 °F 83% 30.01 in 10.0 mi South 6.9 mph - 0.00 in   Partly Cloudy
6:55 AM 78.8 °F - 71.6 °F 78% 30.02 in 10.0 mi South 5.8 mph - 0.00 in   Partly Cloudy
7:15 AM 78.8 °F - 71.6 °F 78% 30.02 in 10.0 mi South 6.9 mph - 0.00 in   Scattered Clouds
7:35 AM 78.8 °F - 71.6 °F 78% 30.03 in 10.0 mi South 5.8 mph - 0.00 in   Clear
7:55 AM 80.6 °F 84.6 °F 71.6 °F 74% 30.03 in 10.0 mi South 5.8 mph - 0.00 in   Partly Cloudy
8:15 AM 82.4 °F 87.2 °F 71.6 °F 70% 30.03 in 10.0 mi South 8.1 mph - 0.00 in   Partly Cloudy
8:35 AM 82.4 °F 87.2 °F 71.6 °F 70% 30.02 in 10.0 mi South 10.4 mph - 0.00 in   Clear
8:55 AM 84.2 °F 89.6 °F 71.6 °F 66% 30.02 in 10.0 mi South 9.2 mph - 0.00 in   Partly Cloudy
9:15 AM 84.2 °F 89.6 °F 71.6 °F 66% 30.02 in 10.0 mi SSE 10.4 mph - 0.00 in   Clear
9:35 AM 84.2 °F 89.6 °F 71.6 °F 66% 30.02 in 10.0 mi SSE 11.5 mph - 0.00 in   Clear
9:55 AM 84.2 °F 89.6 °F 71.6 °F 66% 30.03 in 10.0 mi South 10.4 mph - 0.00 in   Partly Cloudy
10:15 AM 86.0 °F 91.8 °F 71.6 °F 62% 30.03 in 10.0 mi South 10.4 mph - 0.00 in   Partly Cloudy
10:35 AM 86.0 °F 91.8 °F 71.6 °F 62% 30.02 in 10.0 mi South 10.4 mph - 0.00 in   Partly Cloudy
10:55 AM 86.0 °F 91.8 °F 71.6 °F 62% 30.03 in 10.0 mi South 10.4 mph - 0.00 in   Clear
11:15 AM 87.8 °F 93.8 °F 71.6 °F 58% 30.03 in 10.0 mi South 9.2 mph - 0.00 in   Partly Cloudy
11:35 AM 84.2 °F 90.9 °F 73.4 °F 70% 30.02 in 10.0 mi South 9.2 mph - 0.00 in   Mostly Cloudy
11:55 AM 84.2 °F 90.9 °F 73.4 °F 70% 30.02 in 10.0 mi South 10.4 mph - 0.00 in   Overcast
12:15 PM 87.8 °F 95.6 °F 73.4 °F 62% 30.02 in 10.0 mi South 10.4 mph - 0.00 in   Light Drizzle
12:35 PM 87.8 °F 95.6 °F 73.4 °F 62% 30.01 in 10.0 mi South 10.4 mph - 0.00 in   Scattered Clouds
12:55 PM 87.8 °F 95.6 °F 73.4 °F 62% 30.01 in 10.0 mi SSE 9.2 mph - 0.00 in   Scattered Clouds
1:15 PM 87.8 °F 97.6 °F 75.2 °F 66% 30.01 in 10.0 mi South 11.5 mph - 0.00 in   Mostly Cloudy
1:35 PM 87.8 °F 95.6 °F 73.4 °F 62% 30.00 in 10.0 mi SSE 9.2 mph - 0.00 in   Scattered Clouds
1:55 PM 87.8 °F 95.6 °F 73.4 °F 62% 30.00 in 10.0 mi South 11.5 mph - 0.00 in   Partly Cloudy
2:15 PM 89.6 °F 98.2 °F 73.4 °F 59% 29.99 in 10.0 mi SSE 9.2 mph - 0.00 in   Partly Cloudy
2:35 PM 87.8 °F 95.6 °F 73.4 °F 62% 29.99 in 10.0 mi South 9.2 mph - 0.00 in   Scattered Clouds
2:55 PM 87.8 °F 95.6 °F 73.4 °F 62% 29.98 in 10.0 mi South 10.4 mph - 0.00 in   Partly Cloudy
3:15 PM 89.6 °F 98.2 °F 73.4 °F 59% 29.98 in 10.0 mi South 12.7 mph - 0.00 in   Clear
3:35 PM 87.8 °F 95.6 °F 73.4 °F 62% 29.97 in 10.0 mi South 13.8 mph - 0.00 in   Clear
3:55 PM 87.8 °F 95.6 °F 73.4 °F 62% 29.96 in 10.0 mi South 13.8 mph - 0.00 in   Partly Cloudy
4:15 PM 87.8 °F 95.6 °F 73.4 °F 62% 29.96 in 10.0 mi South 11.5 mph - 0.00 in   Partly Cloudy
4:35 PM 87.8 °F 95.6 °F 73.4 °F 62% 29.96 in 10.0 mi South 11.5 mph - 0.00 in   Clear
4:55 PM 87.8 °F 95.6 °F 73.4 °F 62% 29.96 in 10.0 mi South 12.7 mph - 0.00 in   Partly Cloudy
5:15 PM 86.0 °F 93.4 °F 73.4 °F 66% 29.96 in 10.0 mi South 11.5 mph - 0.00 in   Partly Cloudy
5:35 PM 86.0 °F 93.4 °F 73.4 °F 66% 29.95 in 10.0 mi South 12.7 mph - 0.00 in   Partly Cloudy
5:55 PM 86.0 °F 93.4 °F 73.4 °F 66% 29.95 in 10.0 mi South 9.2 mph - 0.00 in   Clear
6:15 PM 84.2 °F 90.9 °F 73.4 °F 70% 29.96 in 10.0 mi South 11.5 mph - 0.00 in   Clear
6:35 PM 84.2 °F 90.9 °F 73.4 °F 70% 29.95 in 10.0 mi South 11.5 mph - 0.00 in   Clear
6:55 PM 82.4 °F 88.2 °F 73.4 °F 74% 29.95 in 10.0 mi SSE 11.5 mph 17.3 mph 0.00 in   Clear
7:15 PM 82.4 °F 88.2 °F 73.4 °F 74% 29.95 in 10.0 mi South 8.1 mph - 0.00 in   Clear
7:35 PM 80.6 °F 85.4 °F 73.4 °F 79% 29.95 in 10.0 mi SSE 9.2 mph - 0.00 in   Clear
7:55 PM 80.6 °F 85.4 °F 73.4 °F 79% 29.96 in 10.0 mi South 6.9 mph - 0.00 in   Clear
8:15 PM 80.6 °F 85.4 °F 73.4 °F 79% 29.97 in 10.0 mi South 8.1 mph - 0.00 in   Clear
8:35 PM 80.6 °F 85.4 °F 73.4 °F 79% 29.97 in 10.0 mi South 9.2 mph - 0.00 in   Clear
8:55 PM 80.6 °F 85.4 °F 73.4 °F 79% 29.98 in 10.0 mi South 6.9 mph - 0.00 in   Clear
9:15 PM 80.6 °F 85.4 °F 73.4 °F 79% 29.99 in 10.0 mi South 5.8 mph - 0.00 in   Clear
9:35 PM 80.6 °F 86.2 °F 75.2 °F 84% 29.99 in 10.0 mi South 8.1 mph - 0.00 in   Clear
9:55 PM 80.6 °F 86.2 °F 75.2 °F 84% 29.98 in 10.0 mi South 9.2 mph - 0.00 in   Clear
10:15 PM 80.6 °F 86.2 °F 75.2 °F 84% 29.98 in 10.0 mi South 8.1 mph - 0.00 in   Clear
10:35 PM 80.6 °F 86.2 °F 75.2 °F 84% 29.98 in 10.0 mi South 9.2 mph - 0.00 in   Clear
10:55 PM 80.6 °F 86.2 °F 75.2 °F 84% 29.98 in 10.0 mi SSW 6.9 mph - 0.00 in   Partly Cloudy
11:15 PM 80.6 °F 86.2 °F 75.2 °F 84% 29.98 in 10.0 mi South 8.1 mph - 0.00 in   Partly Cloudy